Phoenix-Mesa Gateway Airport, AZ

1:16 AM MST on April 21, 2018 (GMT -0700)
Phoenix-Mesa Gateway Airport

Weather History for KIWA - September, 2012

Change the Weather History Date:

Saturday, September 22, 2012

  Actual Average Record
Temperature  
Mean Temperature 88 °F -  
Max Temperature 104 °F 96 °F 107 °F (2003)
Min Temperature 71 °F 70 °F 59 °F (2004)
Cooling Degree Days 22    
Growing Degree Days 38 (Base 50)    
Moisture  
Dew Point 41 °F    
Average Humidity 24    
Maximum Humidity 38    
Minimum Humidity 9    
Precipitation  
Precipitation 0.00 in - - ()
Sea Level Pressure  
Sea Level Pressure 29.90 in    
Wind  
Wind Speed 5 mph (SE)    
Max Wind Speed 9 mph    
Max Gust Speed -    
Visibility 12 miles    
Events      
Averages and records for this station are not official NWS values.
T = Trace of Precipitation, MM = Missing Value Source: NWS Daily Summary

Daily Weather History Graph

Daily Weather History Graph

Search for Another Location

Airport or City:

Astronomy

Sep. 22, 2012 Rise Set
Actual Time 6:15 AM MST 6:22 PM MST
Civil Twilight 5:50 AM MST 6:47 PM MST
Nautical Twilight 5:21 AM MST 7:16 PM MST
Astronomical Twilight 4:52 AM MST 7:45 PM MST
Moon 1:18 PM MST (9/22) 11:48 PM MST (9/22)
Length of Visible Light 12h 56m
Length of Day
12h 07m
Waxing Crescent, 50% of the Moon is Illuminated
Sep 22
Waxing Crescent
Sep 22
First Quarter
Sep 29
Full
Oct 8
Last Quarter
Oct 15
New

Hourly Weather History & Observations

Time (MST) Temp. Dew Point Humidity Pressure Visibility Wind Dir Wind Speed Gust Speed Precip Events Conditions
12:15 AM 78.8 °F 42.8 °F 28% 29.87 in 10.0 mi SE 5.8 mph - N/A   Clear
12:35 AM 78.8 °F 44.6 °F 30% 29.88 in 10.0 mi SE 5.8 mph - N/A   Clear
12:55 AM 75.2 °F 44.6 °F 34% 29.88 in 10.0 mi SE 6.9 mph - N/A   Clear
1:15 AM 73.4 °F 42.8 °F 33% 29.88 in 10.0 mi SSE 5.8 mph - N/A   Clear
1:35 AM 71.6 °F 44.6 °F 38% 29.89 in 10.0 mi SSE 6.9 mph - N/A   Clear
1:55 AM 73.4 °F 42.8 °F 33% 29.89 in 10.0 mi SE 6.9 mph - N/A   Clear
2:15 AM 73.4 °F 41.0 °F 31% 29.89 in 10.0 mi SE 5.8 mph - N/A   Clear
2:35 AM 71.6 °F 41.0 °F 33% 29.89 in 10.0 mi SE 8.1 mph - N/A   Clear
2:55 AM 71.6 °F 42.8 °F 35% 29.89 in 10.0 mi SE 8.1 mph - N/A   Clear
3:15 AM 71.6 °F 39.2 °F 31% 29.89 in 10.0 mi SE 6.9 mph - N/A   Clear
3:35 AM 71.6 °F 41.0 °F 33% 29.89 in 10.0 mi East 6.9 mph - N/A   Clear
3:55 AM 71.6 °F 39.2 °F 31% 29.89 in 10.0 mi East 6.9 mph - N/A   Clear
4:15 AM 71.6 °F 39.2 °F 31% 29.90 in 10.0 mi Calm Calm - N/A   Clear
4:35 AM 71.6 °F 39.2 °F 31% 29.90 in 10.0 mi East 5.8 mph - N/A   Clear
4:55 AM 71.6 °F 42.8 °F 35% 29.90 in 10.0 mi East 4.6 mph - N/A   Clear
5:15 AM 71.6 °F 39.2 °F 31% 29.91 in 10.0 mi East 5.8 mph - N/A   Clear
5:47 AM 75.2 °F 39.2 °F 27% 29.92 in 20.0 mi ESE 8.1 mph - N/A   Mostly Cloudy
6:47 AM 73.4 °F 42.8 °F 33% 29.94 in 35.0 mi SE 5.8 mph - N/A   Mostly Cloudy
7:47 AM 78.8 °F 42.8 °F 28% 29.96 in 35.0 mi ESE 5.8 mph - N/A   Scattered Clouds
8:52 AM 86.0 °F 41.0 °F 20% 29.96 in 35.0 mi ESE 9.2 mph - N/A   Scattered Clouds
9:47 AM 89.6 °F 39.2 °F 17% 29.97 in 35.0 mi SSE 9.2 mph - N/A   Scattered Clouds
10:47 AM 93.2 °F 44.6 °F 19% 29.95 in 35.0 mi WNW 3.5 mph - N/A   Scattered Clouds
11:47 AM 96.8 °F 39.2 °F 14% 29.93 in 30.0 mi Variable 4.6 mph - N/A   Scattered Clouds
12:47 PM 98.6 °F 39.2 °F 13% 29.92 in 30.0 mi Calm Calm - N/A   Scattered Clouds
1:47 PM 100.4 °F 39.2 °F 12% 29.90 in 30.0 mi WSW 9.2 mph - N/A   Scattered Clouds
2:47 PM 100.4 °F 37.4 °F 11% 29.87 in 35.0 mi WNW 8.1 mph - N/A   Scattered Clouds
3:47 PM 104.0 °F 35.6 °F 9% 29.86 in 35.0 mi West 5.8 mph - N/A   Mostly Cloudy
4:47 PM 104.0 °F 35.6 °F 9% 29.85 in 35.0 mi West 6.9 mph - N/A   Mostly Cloudy
5:47 PM 100.4 °F 33.8 °F 10% 29.85 in 20.0 mi NW 6.9 mph - N/A   Mostly Cloudy
6:47 PM 98.6 °F 39.2 °F 13% 29.85 in 20.0 mi WNW 4.6 mph - N/A   Mostly Cloudy
7:47 PM 93.2 °F 39.2 °F 15% 29.87 in 20.0 mi Calm Calm - N/A   Mostly Cloudy
7:55 PM 93.2 °F 41.0 °F 16% 29.87 in 10.0 mi WSW 3.5 mph - N/A   Clear
8:15 PM 93.2 °F 39.2 °F 15% 29.88 in 10.0 mi Calm Calm - N/A   Clear
8:35 PM 93.2 °F 41.0 °F 16% 29.88 in 10.0 mi Calm Calm - N/A   Clear
8:47 PM 91.4 °F 41.0 °F 17% 29.88 in 20.0 mi Calm Calm - N/A   Mostly Cloudy
8:55 PM 93.2 °F 41.0 °F 16% 29.88 in 10.0 mi Calm Calm - N/A   Clear
9:15 PM 86.0 °F 44.6 °F 23% 29.89 in 10.0 mi Calm Calm - N/A   Clear
9:35 PM 86.0 °F 42.8 °F 22% 29.89 in 10.0 mi Calm Calm - N/A   Clear
9:55 PM 82.4 °F 46.4 °F 28% 29.89 in 10.0 mi Calm Calm - N/A   Clear
10:15 PM 84.2 °F 44.6 °F 25% 29.90 in 10.0 mi Calm Calm - N/A   Clear
10:35 PM 84.2 °F 44.6 °F 25% 29.90 in 10.0 mi SE 3.5 mph - N/A   Clear
10:55 PM 80.6 °F 46.4 °F 30% 29.90 in 10.0 mi SSE 5.8 mph - N/A   Clear
11:15 PM 82.4 °F 46.4 °F 28% 29.90 in 10.0 mi SSE 5.8 mph - N/A   Clear
11:35 PM 80.6 °F 46.4 °F 30% 29.90 in 10.0 mi SE 5.8 mph - N/A   Clear
11:55 PM 80.6 °F 46.4 °F 30% 29.90 in 10.0 mi SE 5.8 mph - N/A   Clear